Probability
0 0 0 0 0 0 0 0 0 0 0 0 0 0 0 0 0 0 0 0 0 0 1 2 3 3 4 5 6 5 4 5 7 5 4 5 4 3
0 0 0 0 0 0 0 0 0 0 0 0 0 0 0 0 0 0 0 0 0 0 0 1 2 2 2 2 2 2 1 2 3 2 2 3 3 3
0 0 0 0 0 0 0 0 0 0 0 0 0 0 0 0 0 0 1 1 0 0 0 0 1 1 0 0 0 0 0 0 0 0 0 1 1 2
0 0 0 0 0 0 0 0 0 0 0 0 0 0 0 0 0 0 1 1 0 0 0 0 0 0 0 0 0 0 0 0 0 0 0 0 0 1
0 0 0 0 0 0 0 0 0 0 0 0 0 0 0 0 0 0 0 0 0 0 0 0 0 0 0 0 0 0 0 0 0 0 0 0 0 0
0 0 0 0 0 0 0 0 0 0 0 0 0 0 0 0 0 0 0 0 0 0 0 0 0 0 0 0 0 0 0 0 0 0 0 0 0 0
0 0 0 0 0 0 0 0 0 0 0 0 0 0 0 0 0 0 0 0 0 0 0 0 0 0 0 0 0 0 0 0 0 0 0 0 0 0
0 0 0 0 0 0 0 0 0 0 0 0 0 0 0 0 0 0 0 0 0 0 0 0 0 0 0 0 0 0 0 0 0 0 0 0 0 0
0 0 0 0 0 0 0 0 0 0 0 0 0 0 0 0 0 0 0 0 0 0 0 0 0 0 0 0 0 0 0 0 0 0 0 0 0 0
0 0 0 0 0 0 0 0 0 0 0 0 0 0 0 0 0 0 0 0 0 0 0 0 0 0 0 0 0 0 0 0 0 0 0 0 0 0
0 0 0 0 0 0 0 0 0 0 0 0 0 0 0 0 0 0 0 0 0 0 0 0 0 0 0 0 0 0 0 0 0 0 0 0 0 0
0 0 0 0 0 0 0 0 0 0 0 0 0 0 0 0 0 0 0 0 0 0 0 0 0 0 0 0 0 0 0 0 0 0 0 0 0 0
0 0 0 0 0 0 0 0 0 0 0 0 0 0 0 0 0 0 0 0 0 0 0 0 0 0 0 0 0 0 0 0 0 0 0 0 0 0
0 0 0 0 0 0 0 0 0 0 0 0 0 0 0 0 0 0 0 0 0 0 0 0 0 0 0 0 0 0 0 0 0 0 0 0 0 0
0 0 0 0 0 0 0 0 0 0 0 0 0 0 0 0 0 0 0 0 0 0 0 0 0 0 0 0 0 0 0 0 0 0 0 0 0 0
0 0 0 0 0 0 0 0 0 0 0 0 0 0 0 0 0 0 0 0 0 0 0 0 0 0 0 0 0 0 0 0 0 0 0 0 0 0
0 0 0 0 0 0 0 0 0 0 0 0 0 0 0 0 0 0 0 0 0 0 0 0 0 0 0 0 0 0 0 0 0 0 0 0 0 0
0 0 0 0 0 0 0 0 0 0 0 0 0 0 0 0 0 0 0 0 0 0 0 0 0 0 0 0 0 0 0 0 0 0 0 0 0 0
0 0 0 0 0 0 0 0 0 0 0 0 0 0 0 0 0 0 0 0 0 0 0 0 0 0 0 0 0 0 0 0 0 0 0 0 0 0
0 0 0 0 0 0 0 0 0 0 0 0 0 0 0 0 0 0 0 0 0 0 0 0 0 0 0 0 0 0 0 0 0 0 0 0 0 0
0 0 0 0 0 0 0 0 0 0 0 0 0 0 0 0 0 0 0 0 0 0 0 0 0 0 0 0 0 0 0 0 0 0 0 0 0 0
0 0 0 0 0 0 0 0 0 0 0 0 0 0 0 0 0 0 0 0 0 0 0 0 0 0 0 0 0 0 0 0 0 0 0 0 0 0
0 0 0 0 0 0 0 0 0 0 0 0 0 0 0 0 0 0 0 0 0 0 0 0 0 0 0 0 0 0 0 0 0 0 0 0 0 0
Wind_Speed
3 3 3 3 2 3 3 3 3 3 4 4 3 3 3 3 5 4 4 7 9 9 10 12 13 14 15 16 18 19 19 20 20 20 21 21 21 21
3 3 3 3 3 3 3 3 3 4 4 4 4 4 4 4 5 4 5 9 9 9 10 12 13 13 14 15 17 18 19 19 20 20 19 19 19 19
4 4 5 4 3 3 3 3 3 3 4 4 3 3 4 5 5 4 4 4 5 10 11 12 13 13 14 15 16 17 19 19 20 20 20 19 19 19
5 5 5 4 4 4 3 4 4 4 4 5 4 3 4 5 5 5 4 4 4 8 10 11 12 13 13 13 14 16 17 18 19 19 19 20 20 19
6 6 6 5 5 4 4 4 4 4 4 4 4 3 3 3 3 4 4 4 4 6 8 9 11 11 12 13 14 15 16 17 18 19 19 19 19 18
5 5 6 6 6 6 5 5 5 4 4 3 4 3 3 4 2 3 4 3 3 3 4 5 6 9 10 12 13 14 15 16 17 18 18 18 18 18
5 5 6 8 10 8 6 5 5 4 4 4 4 3 3 3 3 3 3 3 4 3 2 3 3 3 4 7 11 13 14 15 16 17 17 17 17 16
6 6 7 8 10 11 12 11 9 7 6 5 4 5 6 5 3 3 2 2 3 2 1 3 2 3 3 3 7 10 13 14 15 16 16 16 16 16
7 6 6 7 8 6 8 11 10 12 13 8 7 8 7 6 5 4 4 4 5 3 1 3 2 3 3 4 7 9 11 12 13 14 15 15 15 15
8 8 8 8 8 8 7 7 7 8 9 8 8 9 9 7 6 6 6 5 4 3 3 3 2 3 2 2 5 7 9 10 11 12 13 14 14 14
8 8 8 8 11 12 8 8 8 8 10 13 12 12 13 12 8 3 3 3 4 4 3 3 2 2 2 2 3 4 6 7 9 10 11 12 13 12
6 7 10 10 11 10 6 7 8 9 7 6 6 8 8 9 11 8 6 5 4 4 4 4 3 2 2 2 1 1 2 3 6 8 10 11 13 9
6 6 6 10 11 11 8 7 11 9 5 6 5 5 5 5 6 6 7 7 6 6 4 4 3 3 3 1 1 1 2 1 2 3 7 11 12 10
7 6 7 10 11 11 8 9 12 9 4 4 5 6 5 6 6 6 8 8 8 9 7 6 4 4 3 3 2 1 2 2 2 2 3 7 8 9
7 10 10 11 10 8 11 13 9 5 5 6 7 7 6 6 5 4 5 6 7 8 7 7 6 5 4 4 3 3 2 3 3 4 4 5 5 6
7 7 10 11 9 10 9 8 6 6 7 7 6 6 5 4 5 4 4 4 4 5 6 7 8 8 5 5 4 4 4 4 4 5 5 4 4 5
3 2 3 3 4 5 5 6 5 5 7 7 7 6 5 5 5 5 4 4 5 5 4 4 5 6 6 5 5 5 5 4 5 6 5 5 5 6
4 4 5 5 6 6 6 6 6 7 7 7 7 7 7 6 6 5 4 5 6 6 6 5 4 3 2 4 6 6 6 5 5 6 5 6 6 6
5 6 6 7 7 7 6 7 7 7 6 7 7 7 7 6 6 5 5 5 6 6 6 5 6 6 6 6 5 8 7 6 6 6 6 5 6 7
6 7 8 7 7 7 7 7 7 6 5 6 7 7 7 6 6 6 6 6 6 6 5 5 6 7 8 6 4 4 9 7 7 7 6 3 2 5
7 8 8 7 7 7 7 7 6 6 6 6 6 7 6 6 6 6 6 8 7 6 7 7 8 9 4 3 3 2 3 6 7 6 7 5 4 5
7 7 7 7 7 6 6 6 6 6 6 6 6 6 6 6 7 7 6 6 6 6 6 5 4 5 5 6 5 5 4 3 3 6 5 4 6 8
7 7 6 6 6 5 5 6 6 6 5 5 5 5 6 6 6 6 6 6 5 5 5 4 4 5 5 6 5 5 6 6 4 4 2 4 2 4
Wind_Direction
261 260 249 251 241 228 209 190 197 260 282 278 286 291 288 278 269 264 259 253 247 244 239 238 237 235 230 225 222 221 219 217 216 216 216 217 218 219
256 260 261 256 257 249 234 218 196 203 247 261 259 273 289 293 282 270 262 263 257 251 246 243 239 235 231 227 222 220 218 217 216 214 214 215 215 216
265 256 257 254 254 257 248 238 227 202 239 267 259 271 277 283 291 283 271 261 261 255 248 244 241 236 232 229 225 221 219 217 216 214 214 214 214 214
255 255 258 259 254 252 247 245 242 225 222 258 273 273 267 269 270 276 273 265 254 259 254 248 244 240 236 232 227 223 220 218 216 215 213 213 214 215
245 244 251 253 257 255 250 248 248 251 225 233 259 262 270 275 284 283 277 269 260 256 256 253 249 243 238 235 230 226 222 220 217 215 214 213 212 213
248 245 246 241 245 250 253 248 246 251 245 240 251 261 266 275 270 276 292 284 274 270 260 256 251 249 244 238 232 228 223 220 218 216 214 212 211 211
254 252 251 251 249 246 250 242 238 237 238 239 249 258 264 271 261 254 265 286 283 254 262 264 252 250 246 241 236 231 224 219 216 215 214 212 211 210
250 256 261 263 262 262 262 255 236 229 229 229 236 237 247 244 245 244 249 275 285 268 236 269 241 254 251 238 236 232 225 220 215 212 212 210 208 206
239 247 260 262 262 260 267 271 262 249 232 220 226 234 237 233 230 245 239 232 239 252 239 266 250 255 260 250 241 234 227 221 215 210 208 205 204 202
237 237 243 257 261 254 257 263 259 256 245 231 225 233 235 231 221 229 235 243 255 252 206 243 249 250 266 263 249 237 228 219 213 210 206 202 198 195
244 242 239 247 257 257 251 255 262 265 260 246 234 237 240 240 227 220 228 228 255 258 210 213 233 242 257 260 259 240 226 215 208 204 199 195 190 185
252 249 245 247 255 256 239 240 253 259 260 265 255 254 251 251 240 218 212 216 226 250 224 198 208 195 249 254 240 227 218 211 200 198 195 188 179 178
247 250 245 246 249 251 243 230 241 249 250 246 250 254 254 248 242 226 213 210 212 229 222 185 194 191 205 238 249 217 203 195 180 186 188 183 181 179
240 245 245 247 250 254 251 243 249 254 246 244 248 249 247 247 243 232 224 221 220 223 214 189 196 194 191 205 227 210 196 187 177 178 177 173 177 180
239 245 250 253 256 258 253 252 251 238 228 237 243 245 239 239 241 241 240 230 231 234 223 202 202 202 198 202 199 192 192 200 187 180 177 179 176 168
244 255 259 258 254 253 259 258 238 224 222 233 240 244 240 235 236 229 233 225 227 242 230 213 206 201 208 206 196 197 189 189 185 184 173 175 174 175
222 247 252 254 253 253 252 249 241 231 230 234 237 241 238 236 239 227 221 215 217 228 228 218 212 208 204 190 198 204 194 195 189 178 174 180 187 183
192 234 246 246 248 251 253 255 244 235 232 231 231 231 232 232 236 229 216 214 222 225 219 205 189 189 201 227 205 199 198 195 187 182 177 183 190 185
207 239 246 248 248 247 247 248 249 241 230 227 230 230 228 228 226 225 221 220 224 222 214 198 190 194 209 220 218 199 192 187 179 187 190 184 189 184
226 239 245 246 245 245 246 247 247 244 233 229 229 228 224 223 224 225 221 219 221 217 212 200 198 200 208 206 194 199 194 183 184 191 184 161 138 145
230 237 242 244 243 242 245 245 242 239 234 227 226 225 220 217 223 224 222 223 217 209 212 214 212 199 178 148 162 187 189 191 182 178 168 159 157 162
240 240 242 241 241 241 243 245 243 239 235 230 229 225 219 214 220 223 219 213 212 212 216 213 182 170 174 188 195 186 175 160 141 128 129 150 166 179
239 241 241 242 241 239 238 240 240 242 235 230 228 225 217 215 216 215 214 211 207 210 204 196 184 183 192 191 187 178 172 166 157 144 91 30 123 145